User: anonymous   Login
Location: Unspecified
(0.0000°N, 0.0000°E)
Time: 18:06:35
(UTC+00:00)
Language:

APRIZESAT 1 (LATINSAT C) - Orbit

View from above orbital plane
View from above orbital plane
View from above satellite
View from above satellite

Ground track
Ground track

The orbit data is extracted from the following two-line orbital elements,

1 28372U 04025G   19085.08094757  .00000014  00000-0  15484-4 0  9997
2 28372  98.3371  32.5789 0045091 271.8335  87.7694 14.49581547779289
Epoch (UTC): 26 March 2019 01:56:33
Eccentricity: 0.0045091
inclination: 98.3371°
perigee height: 695 km
apogee height: 759 km
right ascension of ascending node: 32.5789°
argument of perigee: 271.8335°
revolutions per day: 14.49581547
mean anomaly at epoch: 87.7694°
orbit number at epoch: 77928

The dashed part of the orbit path shows where the satellite is in the earth's shadow,  

DLR